TIANHUI 1 1 36985U 10040A 10252.85568715 -.00000070 00000-0 00000+0 0 584 2 36985 97.3457 11.0992 0011879 249.1846 257.0927 15.23411259 2513 COSMOS 2464 [GLONASS-M] 1 37137U 10041A 10252.63837753 -.00000049 00000-0 10000-3 0 145 2 37137 64.8332 29.3120 0030080 222.1354 118.1303 2.14084975 159 COSMOS 2465 [GLONASS-M] 1 37138U 10041B 10252.61348307 -.00000049 00000-0 00000+0 0 141 2 37138 64.8521 29.3408 0049224 104.6198 197.6470 2.11622045 159 COSMOS 2466 [GLONASS-M] 1 37139U 10041C 10252.63649488 -.00000048 00000-0 10000-3 0 131 2 37139 64.8440 29.3176 0034198 271.0800 80.0854 2.14582500 150 SL-12 R/B(2) 1 37140U 10041D 10251.25552822 -.00000043 00000-0 10000-3 0 95 2 37140 64.8310 29.3631 0013792 182.5265 177.4685 2.13455944 133 SL-12 R/B(AUX MOTOR) 1 37143U 10041G 10251.77459352 -.00000199 00000-0 -34183-4 0 24 2 37143 64.8601 27.1026 5800990 193.1046 141.0578 4.23082911 228 SL-12 R/B(AUX MOTOR) 1 37144U 10041H 10246.57430273 .00000048 00000-0 00000+0 0 14 2 37144 64.7651 29.0177 5799412 193.3232 140.5132 4.23077573 00 SL-12 DEB 1 37145U 10041J 10248.47171244 .19090656 84845-5 10582-2 0 46 2 37145 64.7857 17.1890 0078708 46.6487 314.0752 16.28872080 509 SL-12 DEB 1 37146U 10041K 10248.47923408 .19918970 81443-5 17547-2 0 74 2 37146 64.6343 16.5827 0088476 67.1564 295.2636 16.24515176 517 SL-12 DEB 1 37147U 10041L 10249.22987784 .13435319 75537-5 63489-3 0 42 2 37147 64.8204 14.4217 0079552 87.3734 291.5654 16.29541565 610 SL-12 DEB 1 37148U 10041M 10245.35002809 -.00002037 64396-5 00000+0 0 17 2 37148 64.9662 29.0261 0306702 54.2333 308.6921 15.68525842 01 SL-12 DEB 1 37149U 10041N 10249.49588464 .34047272 78402-5 17482-2 0 62 2 37149 64.9568 14.2170 0078736 72.7783 287.3598 16.29266577 647 2010-042A 1 37150U 10042A 10251.08393306 .00001342 26089-6 10000-3 0 57 2 37150 25.1882 223.6674 7607147 181.0454 176.6021 1.91394367 49 2010-042B 1 37151U 10042B 10248.99825271 -.00000007 00000-0 00000+0 0 68 2 37151 25.0357 223.8255 7588863 180.3933 178.2685 1.91173792 41 2010-043A 1 37152U 10043A 10251.69001315 .00000023 00000-0 10000-3 0 35 2 37152 82.4577 66.3957 0006906 324.2883 35.7744 12.41264490 69 2010-043B 1 37153U 10043B 10251.77079213 .00000023 00000-0 10000-3 0 37 2 37153 82.4547 66.3478 0007160 349.2014 10.4937 12.40676501 75 2010-043C 1 37154U 10043C 10251.69011136 .00000023 00000-0 10000-3 0 39 2 37154 82.4608 66.4037 0006332 334.1713 25.8711 12.40989833 69 SL-19 R/B 1 37155U 10043D 10252.61511913 .00000000 00000-0 10000-3 0 36 2 37155 82.4594 66.0088 0201082 266.1070 91.7518 12.78489961 183